SCP
0 0 0 0 0 0 0 0 0 0 0 0 0 0 0 0 0 0 0 0 0 0 0 0 0 0 0 0 0 0 0 0 0 0 0 0 0 0 0 0 0 0 0 0 0 0 0 0 0
0 0 0 0 0 0 0 0 0 0 0 0 0 0 0 0 0 0 0 0 0 0 0 0 0 0 0 0 0 0 0 0 0 0 0 0 0 0 0 0 0 0 0 0 0 0 0 0 0
0 0 0 0 0 0 0 0 0 0 0 0 0 0 0 0 0 0 0 0 0 0 0 0 0 0 0 0 0 0 0 0 0 0 0 0 0 0 0 0 0 0 0 0 0 0 0 0 0
0 0 0 0 0 0 0 0 0 0 0 0 0 0 0 0 0 0 0 0 0 0 0 0 0 0 0 0 0 0 0 0 0 0 0 0 0 0 0 0 0 0 0 0 0 0 0 0 0
0 0 0 0 0 0 0 0 0 0 0 0 0 0 0 0 0 0 0 0 0 0 0 0 0 0 0 0 0 0 0 0 0 0 0 0 0 0 0 0 0 0 0 0 0 0 0 0 0
0 0 0 0 0 0 0 0 0 0 0 0 0 0 0 0 0 0 0 0 0 0 0 0 0 0 0 0 0 0 0 0 0 0 0 0 0 0 0 0 0 0 0 0 0 0 0 0 0
0 0 0 0 0 0 0 0 0 0 0 0 0 0 0 0 0 0 0 0 0 0 0 0 0 0 0 0 0 0 0 0 0 0 0 0 0 0 0 0 0 0 0 0 0 0 0 0 0
0 0 0 0 0 0 0 0 0 0 0 0 0 0 0 0 0 0 0 0 0 0 0 0 0 0 0 0 0 0 0 0 0 0 0 0 0 0 0 0 0 0 0 0 0 0 0 0 0
0 0 0 0 0 0 0 0 0 0 0 0 0 0 0 0 0 0 0 0 0 0 0 0 0 0 0 0 0 0 0 0 0 0 0 0 0 0 0 0 0 0 0 0 0 0 0 0 0
0 0 0 0 0 0 0 0 0 0 0 0 0 0 0 0 0 0 0 0 0 0 0 0 0 0 0 0 0 0 0 0 0 0 0 0 0 0 0 0 0 0 0 0 0 0 0 0 0
0 0 0 0 0 0 0 0 0 0 0 0 0 0 0 0 0 0 0 0 0 0 0 0 0 0 0 0 0 0 0 0 0 0 0 0 0 0 0 0 0 0 0 0 0 0 0 0 0
0 0 0 0 0 0 0 0 0 0 0 0 0 0 0 0 0 0 0 0 0 0 0 0 0 0 0 0 0 0 0 0 0 0 0 0 0 0 0 0 0 0 0 0 0 0 0 0 0
0 0 0 0 0 0 0 0 0 0 0 0 0 0 0 0 0 0 0 0 0 0 0 0 0 0 0 0 0 0 0 0 0 0 0 0 0 0 0 0 0 0 0 0 0 0 0 0 0
0 0 0 0 0 0 0 0 0 0 0 0 0 0 0 0 0 0 0 0 0 0 0 0 0 0 0 0 0 0 0 0 0 0 0 0 0 0 0 0 0 0 0 0 0 0 0 0 0
0 0 0 0 0 0 0 0 0 0 0 0 0 0 0 0 0 0 0 0 0 0 0 0 0 0 0 0 0 0 0 0 0 0 0 0 0 0 0 0 0 0 0 0 0 0 0 0 0
0 0 0 0 0 0 0 0 0 0 0 0 0 0 0 0 0 0 0 0 0 0 0 0 0 0 0 0 0 0 0 0 0 0 0 0 0 0 0 0 0 0 0 0 0 0 0 0 0
0 0 0 0 0 0 0 0 0 0 0 0 0 0 0 0 0 0 0 0 0 0 0 0 0 0 0 0 0 0 0 0 0 0 0 0 0 0 0 0 0 0 0 0 0 0 0 0 0
0 0 0 -0 0 0 0 0 0 0 0 0 0 0 0 0 0 0 0 0 0 0 0 0 0 0 0 0 0 0 0 0 0 0 0 0 0 0 0 0 0 0 0 0 0 0 0 0 0
0 0 0 0 0 0 0 0 0 0 0 0 0 0 0 0 0 0 0 0 0 0 0 0 0 0 0 0 0 0 0 0 0 0 0 0 0 0 0 0 0 0 0 0 0 0 0 0 0
0 0 0 0 0 0 0 0 0 0 0 0 0 0 0 0 0 0 0 0 0 0 0 0 0 0 0 0 0 0 0 0 0 0 0 0 0 0 0 0 0 0 0 0 0 0 0 0 0
0 0 0 0 0 0 0 0 -0 -0 -0 0 0 0 0 0 0 0 0 0 0 0 0 0 0 0 0 0 0 0 0 0 0 0 0 0 0 0 0 0 0 0 0 0 0 0 0 0 0
0 0 0 0 0 0 0 0 0 -0 -0 0 0 0 0 0 0 0 0 0 0 0 0 0 0 0 0 0 0 0 0 0 0 0 0 0 0 0 0 0 0 0 0 0 0 0 0 0 0
0 0 0 0 0 0 0 0 0 -0 0 0 0 0 0 0 0 0 0 0 0 0 0 0 0 0 0 0 0 0 0 0 0 0 0 0 0 0 0 0 0 0 0 0 0 0 0 0 0
0 0 0 0 0 0 0 0 0 0 0 0 0 0 0 0 0 0 0 0 0 0 0 0 0 0 0 0 0 0 0 0 0 0 0 0 0 0 0 0 0 0 0 0 0 0 0 0 0
0 0 0 0 0 0 0 0 0 0 0 0 0 0 0 0 0 0 0 0 0 0 0 0 0 0 0 0 0 0 0 0 0 0 0 0 0 0 0 0 0 0 0 0 0 0 0 0 0
0 0 0 0 0 0 0 0 0 0 0 0 0 0 0 0 0 0 0 0 0 0 0 0 0 0 0 0 0 0 0 0 0 0 0 0 0 0 0 0 0 0 0 0 0 0 0 0 0
0 0 0 0 0 0 0 0 0 0 0 0 0 0 0 0 0 0 0 0 0 0 0 0 0 0 0 0 0 0 0 0 0 0 0 0 0 0 0 0 0 0 0 0 0 0 0 0 0
0 0 0 0 0 0 0 0 0 0 0 0 0 0 0 0 0 0 0 0 0 0 0 0 0 0 0 0 0 0 0 0 0 0 0 0 0 0 0 0 0 0 0 0 0 0 0 0 0
0 0 0 0 0 0 0 0 0 0 0 0 0 0 0 0 0 0 0 0 0 0 0 0 0 0 0 0 0 0 0 0 0 0 0 0 0 0 0 0 0 0 0 0 0 0 0 0 0
0 0 0 0 0 0 0 0 0 0 0 0 0 0 0 0 0 0 0 0 0 0 0 0 0 0 0 0 0 0 0 0 0 0 0 0 0 0 0 0 0 0 0 0 0 0 0 0 0
Wind_Speed
9 5 2 4 5 4 1 2 1 0 0 0 2 5 6 4 2 3 2 4 7 7 5 6 6 7 8 8 8 7 7 7 7 7 7 7 7 7 8 7 7 8 8 8 8 8 8 8 8
4 3 4 5 5 2 2 2 1 2 2 1 3 4 5 3 2 4 3 4 7 7 6 5 6 7 7 7 7 7 7 7 6 7 6 6 6 7 7 7 7 7 7 7 7 7 7 7 7
3 1 4 4 3 4 4 2 3 1 1 1 2 4 3 3 2 3 3 6 7 6 5 5 6 7 7 7 7 7 7 7 6 6 6 6 6 6 6 7 6 6 6 7 7 7 7 8 8
2 4 5 4 2 3 4 3 3 2 1 2 3 4 2 1 2 2 5 7 8 5 4 5 6 7 7 6 7 7 6 6 5 5 5 6 6 6 6 6 6 6 6 6 7 7 7 8 8
4 4 4 1 2 2 2 3 3 1 1 1 3 3 1 2 2 5 6 7 8 5 4 5 6 6 7 6 6 6 6 5 5 5 5 5 5 5 6 6 6 6 6 6 6 6 7 7 7
4 4 3 3 3 2 2 2 2 1 1 1 3 4 1 0 4 5 5 6 6 6 5 5 6 6 6 5 6 6 6 5 5 5 5 5 5 5 5 5 5 5 5 5 5 6 6 7 7
4 4 3 3 3 2 2 1 2 2 1 2 3 5 1 1 2 4 4 5 5 5 4 3 3 4 5 5 5 5 5 5 5 5 5 4 5 5 5 5 4 4 4 4 4 5 6 6 6
4 4 2 2 3 3 1 0 0 2 2 0 3 5 4 4 3 4 4 4 4 4 4 3 3 2 3 3 4 5 4 5 5 4 4 4 4 4 5 4 4 4 4 4 4 5 6 6 6
4 4 3 3 4 3 1 1 1 1 2 1 1 2 3 6 6 5 3 3 3 3 3 3 3 2 2 2 3 3 4 4 4 3 4 4 2 2 2 3 4 4 4 4 4 5 6 6 6
4 3 4 2 2 3 1 1 1 1 1 0 1 2 4 6 7 6 6 5 5 4 4 3 3 3 3 2 2 2 2 2 2 2 2 1 1 1 2 3 3 3 3 4 5 5 5 4 2
3 4 2 1 1 1 1 1 1 2 3 4 4 4 5 5 6 6 7 6 6 5 4 4 4 3 3 2 2 1 1 1 1 1 1 1 1 1 1 1 1 1 2 2 3 3 2 2 2
2 0 2 1 1 0 1 1 1 3 6 4 4 6 7 7 8 8 7 6 5 5 5 4 4 4 3 3 2 2 2 1 1 1 2 2 1 1 1 1 1 1 1 1 1 1 2 2 2
1 1 0 1 1 1 1 3 3 5 7 3 3 5 8 9 8 7 6 5 4 5 5 4 4 4 4 3 2 2 2 2 2 1 2 2 2 2 2 1 1 1 1 1 1 2 2 2 1
1 1 0 2 2 2 2 5 3 8 5 3 4 6 7 9 9 7 6 6 6 6 6 4 5 5 4 4 3 2 2 2 2 2 2 2 2 2 2 2 1 1 1 1 2 2 2 1 1
2 1 2 2 2 2 1 5 7 8 4 4 5 6 7 8 8 9 9 8 8 7 6 5 5 5 5 4 4 3 2 2 2 2 2 2 2 3 2 2 2 2 2 2 2 2 2 2 1
1 1 2 3 2 2 2 8 6 4 4 6 6 6 6 7 8 8 8 8 7 6 6 6 5 5 5 4 4 3 3 3 2 2 2 2 2 3 3 2 2 2 1 1 2 2 2 1 1
1 1 3 3 2 2 3 8 6 3 5 7 7 6 6 6 6 7 7 7 7 7 6 6 5 6 6 5 4 3 3 3 2 2 2 2 2 2 2 2 2 2 2 1 2 2 2 2 1
3 3 3 4 2 2 5 10 9 5 6 7 7 6 6 7 8 7 6 6 6 6 6 6 6 6 5 4 2 2 2 2 2 2 2 2 2 2 2 2 2 3 2 2 2 2 1 2 2
2 2 4 5 2 3 7 11 11 7 6 7 7 7 8 8 7 5 6 6 6 5 6 6 6 6 5 4 3 3 3 2 2 2 2 2 2 3 3 2 2 2 3 3 3 2 2 1 2
2 3 4 5 2 2 6 11 10 7 8 8 9 9 8 7 5 5 5 5 6 7 6 6 7 7 6 5 4 3 3 2 2 1 2 2 2 3 3 3 3 3 2 3 3 3 2 1 1
3 4 4 4 5 3 4 9 6 5 5 5 7 7 7 9 9 7 7 7 7 7 7 6 7 7 6 5 3 2 2 1 1 1 2 2 2 2 2 3 3 3 3 3 4 4 4 3 1
4 3 2 2 2 4 0 6 8 4 5 6 7 7 8 8 8 7 7 7 7 8 6 6 6 7 6 6 5 6 4 4 4 3 2 1 2 2 2 2 3 3 3 3 3 3 3 3 3
3 1 1 2 1 3 1 3 10 3 6 8 8 8 8 8 8 8 8 8 7 6 6 6 6 6 6 7 7 6 4 3 2 1 2 2 1 1 2 2 3 3 3 3 3 3 3 3 3
1 1 2 2 2 3 4 4 9 5 7 6 6 7 8 7 7 7 5 4 5 5 5 5 6 6 6 7 7 6 6 4 3 3 3 2 2 2 2 2 2 3 2 3 3 3 4 3 3
1 3 3 4 3 6 2 4 11 7 6 6 7 6 6 5 6 6 5 5 5 5 5 5 6 6 6 7 7 7 7 6 6 5 4 3 2 2 3 3 3 2 3 3 3 3 3 4 4
3 4 5 4 5 6 3 7 9 5 4 4 3 2 2 3 4 6 6 6 6 6 6 5 6 6 6 7 7 6 6 5 4 5 4 4 4 4 3 3 3 3 3 3 3 3 3 3 4
3 3 3 4 0 3 6 8 9 2 3 2 1 1 2 3 4 5 5 5 5 5 6 6 6 5 5 6 5 5 5 5 5 4 4 4 3 3 4 4 4 3 3 3 3 3 3 3 4
1 3 3 3 3 4 7 6 5 4 4 3 2 2 3 2 3 3 4 5 5 5 5 4 5 5 4 4 5 4 5 5 5 4 4 4 4 3 4 4 4 3 3 3 3 3 3 3 3
3 3 3 3 4 4 4 8 5 4 3 3 3 3 3 3 3 3 3 3 3 3 4 4 4 3 3 4 4 4 4 4 4 4 5 4 4 4 4 4 4 4 4 3 3 3 3 4 3
3 4 5 3 4 4 3 10 4 2 2 1 2 2 2 2 1 2 1 1 1 1 2 3 3 4 4 4 3 3 3 3 3 3 3 3 4 4 4 4 4 4 3 3 4 4 4 4 4
Wind_Direction
333 337 56 58 60 59 211 253 185 70 72 62 86 95 106 110 136 163 160 136 132 143 148 140 130 121 116 110 104 99 92 92 96 96 93 88 85 84 82 82 83 85 83 83 84 86 85 85 86
332 353 56 62 93 125 254 250 192 233 188 145 72 87 88 85 86 118 143 146 139 142 141 140 127 122 117 112 106 101 96 91 98 100 99 96 90 88 85 80 80 83 81 82 84 89 90 87 87
325 47 78 80 124 176 198 205 186 221 50 114 82 66 96 129 132 156 169 143 134 134 133 137 124 123 119 114 109 104 98 96 94 102 104 102 96 92 88 84 83 84 84 80 81 84 87 88 89
49 48 58 81 184 218 193 196 176 153 37 47 103 83 69 41 159 166 138 132 130 130 131 135 124 124 121 116 111 110 105 104 103 101 105 104 98 93 90 89 89 85 85 84 82 82 85 88 89
64 77 76 87 226 244 227 209 173 164 166 103 111 117 101 343 104 123 128 131 135 134 135 141 127 124 123 120 116 117 111 105 106 106 104 103 96 94 93 90 88 86 84 82 84 88 89 88 87
65 75 108 200 217 236 266 249 146 138 187 156 120 129 173 343 122 135 132 128 135 138 138 139 130 125 123 121 119 118 113 106 103 104 102 99 95 92 91 88 90 91 88 88 87 95 92 85 83
108 111 167 189 189 217 242 246 157 167 173 208 145 133 164 231 169 139 125 118 121 127 129 132 144 137 126 118 114 110 110 108 106 100 93 89 84 83 81 79 85 88 90 90 87 96 97 91 83
123 116 158 187 185 219 232 128 166 154 196 281 123 149 189 201 163 122 114 112 115 124 134 136 131 130 136 135 117 107 102 105 105 99 87 81 77 74 65 62 73 81 84 87 84 95 93 88 79
97 96 190 200 187 204 208 101 350 49 100 48 56 155 173 146 136 122 115 110 125 141 153 151 145 138 134 137 124 117 108 102 100 100 94 86 75 66 55 53 61 71 79 84 82 92 90 80 73
94 158 207 213 191 181 191 172 239 76 51 28 22 35 112 135 147 156 166 173 173 177 179 166 161 155 144 142 131 140 132 118 109 110 109 101 92 82 74 62 61 58 66 80 77 77 79 74 65
123 174 179 251 275 164 190 250 258 167 238 219 205 188 159 161 170 180 188 186 184 179 180 181 171 163 153 151 148 155 146 132 130 138 138 126 109 93 76 84 70 61 60 71 70 67 68 73 80
119 170 165 212 319 139 218 225 254 219 235 228 201 178 173 180 190 195 199 199 182 176 186 191 179 166 163 159 162 160 157 161 165 169 158 146 141 138 142 133 133 108 99 116 109 98 89 81 82
140 186 225 262 325 279 278 252 248 251 251 235 181 179 188 194 201 204 199 200 188 188 191 191 184 175 169 162 167 159 175 176 177 175 170 161 164 170 164 159 163 164 141 152 139 123 117 105 95
137 108 299 288 283 282 256 269 253 255 247 213 192 205 210 207 205 201 193 199 202 199 196 187 183 180 172 170 174 176 181 180 177 181 183 175 172 173 169 172 181 176 170 166 157 148 137 123 110
94 54 321 271 247 233 231 278 238 244 225 225 225 223 222 222 211 203 196 197 201 199 191 187 185 180 177 178 179 176 181 176 182 187 185 178 177 179 175 175 185 192 173 151 146 133 123 115 97
60 48 294 273 214 213 180 261 258 225 204 234 238 233 228 226 214 208 199 198 196 189 190 191 185 183 185 182 181 181 179 181 189 185 182 182 181 180 173 174 188 177 151 146 154 142 125 117 128
36 231 250 277 230 204 208 256 269 243 221 239 241 232 228 226 223 215 202 198 194 191 190 189 189 185 187 184 180 179 174 179 186 181 179 184 178 173 171 178 178 164 153 152 157 140 143 144 146
206 221 247 253 252 223 247 264 276 264 232 242 244 237 229 224 225 214 203 197 192 190 189 187 189 188 183 174 162 162 168 180 185 191 189 184 184 180 174 177 176 168 161 164 160 153 145 147 146
184 205 255 262 261 259 255 267 272 261 241 243 243 237 232 232 230 211 200 195 187 189 190 190 191 191 178 172 170 179 194 194 197 201 193 188 191 185 176 175 169 175 180 183 173 157 155 147 128
228 249 272 291 290 267 280 278 271 246 232 228 227 230 228 227 224 215 203 198 195 195 194 193 196 191 185 185 182 182 178 188 197 197 197 197 195 193 184 179 182 181 182 180 175 165 161 167 157
244 226 241 273 316 295 303 298 274 259 239 235 229 226 222 216 216 214 207 206 200 198 196 198 199 193 189 180 159 134 111 102 159 208 215 220 201 194 190 186 184 183 181 196 192 182 172 181 202
240 226 228 261 327 299 340 292 284 262 262 240 233 232 230 225 218 212 208 206 205 202 195 195 196 194 188 175 170 169 177 188 202 201 205 229 216 202 190 184 183 188 186 198 202 190 184 176 194
216 243 239 246 246 296 256 245 283 283 260 250 237 233 231 225 214 208 206 205 203 195 191 193 188 193 188 180 180 182 189 195 180 173 183 212 231 218 195 188 185 191 191 196 197 192 189 191 194
188 32 33 39 71 277 229 204 276 243 235 253 242 231 227 222 211 208 203 195 198 192 192 189 188 195 190 185 186 188 188 183 173 187 201 211 218 225 222 206 198 198 199 197 202 202 198 201 202
110 96 24 355 348 255 245 223 253 255 247 240 238 231 223 215 202 199 197 195 197 194 200 196 192 195 193 191 193 195 195 189 192 197 202 203 212 223 227 214 208 209 212 202 195 199 206 203 204
206 157 162 201 239 281 285 240 255 269 279 265 238 221 208 207 202 197 197 196 198 198 198 196 193 196 195 198 201 200 197 196 202 201 200 203 210 219 216 206 209 212 210 203 192 196 209 200 207
172 197 179 139 132 284 271 276 295 293 318 324 321 287 243 227 217 208 196 194 198 199 201 196 194 195 199 202 200 200 200 200 203 201 201 205 211 208 203 201 204 209 206 203 193 200 214 207 215
188 157 122 146 176 266 286 270 258 281 288 294 295 268 261 251 223 212 200 198 198 198 196 189 191 195 198 201 202 200 202 205 203 196 202 206 209 203 199 198 199 202 202 202 196 200 210 210 223
169 179 175 169 180 186 268 272 236 226 240 240 252 257 250 250 232 217 208 198 194 185 184 189 193 194 194 199 201 197 199 200 200 202 207 207 204 198 198 199 197 200 202 200 199 206 206 213 226
213 198 167 183 234 215 236 271 275 228 265 243 271 292 292 276 252 220 195 148 153 186 197 197 197 202 205 198 192 195 194 190 195 205 209 200 199 198 198 195 197 201 203 203 203 209 212 217 224